Visibility
15.0 15.0 15.0 15.0 15.0 15.0 15.0 15.0 15.0 15.0 15.0 15.0 15.0 15.0 15.0 15.0 15.0 15.0 15.0 15.0 15.0 15.0 15.0 15.0 15.0 15.0 15.0 10.4 12.2 15.0 11.6 11.4 12.4 15.0 15.0 15.0 15.0 15.0 15.0 15.0 15.0 15.0 15.0
15.0 15.0 15.0 15.0 15.0 15.0 15.0 15.0 15.0 15.0 15.0 15.0 15.0 15.0 15.0 15.0 15.0 15.0 15.0 15.0 15.0 15.0 15.0 15.0 15.0 15.0 15.0 15.0 15.0 15.0 15.0 13.3 15.0 15.0 15.0 15.0 15.0 15.0 15.0 15.0 15.0 15.0 15.0
15.0 15.0 15.0 15.0 15.0 15.0 15.0 15.0 15.0 15.0 15.0 15.0 15.0 15.0 15.0 15.0 15.0 15.0 15.0 15.0 15.0 15.0 15.0 15.0 15.0 15.0 15.0 14.8 14.5 13.3 13.4 12.4 13.5 14.6 12.3 10.9 15.0 15.0 15.0 15.0 15.0 13.6 15.0
15.0 15.0 15.0 15.0 15.0 15.0 15.0 15.0 15.0 15.0 15.0 15.0 15.0 15.0 15.0 15.0 15.0 15.0 15.0 15.0 15.0 15.0 15.0 15.0 15.0 15.0 15.0 14.6 7.4 7.0 7.7 13.4 10.5 0.8 14.3 15.0 15.0 15.0 15.0 14.3 15.0 15.0 15.0
15.0 15.0 15.0 15.0 15.0 15.0 15.0 15.0 15.0 15.0 15.0 15.0 15.0 15.0 15.0 15.0 15.0 15.0 15.0 15.0 15.0 15.0 15.0 15.0 15.0 15.0 15.0 15.0 9.1 11.8 8.2 0.3 15.0 12.5 5.4 15.0 1.4 4.4 4.4 15.0 15.0 15.0 9.5
15.0 15.0 15.0 15.0 15.0 15.0 15.0 15.0 15.0 15.0 15.0 15.0 15.0 15.0 15.0 15.0 15.0 15.0 15.0 15.0 15.0 15.0 15.0 15.0 15.0 0.4 0.1 0.0 0.2 2.1 3.8 14.8 15.0 2.0 3.0 0.2 15.0 14.9 15.0 15.0 15.0 5.7 3.9
15.0 15.0 15.0 15.0 15.0 15.0 15.0 15.0 15.0 15.0 15.0 15.0 15.0 15.0 15.0 15.0 15.0 15.0 15.0 15.0 15.0 15.0 15.0 15.0 15.0 15.0 0.2 11.4 0.1 4.4 5.3 3.9 0.2 1.4 3.2 1.3 2.5 14.8 14.8 13.0 3.2 6.7 1.0
15.0 15.0 15.0 15.0 15.0 15.0 15.0 15.0 15.0 15.0 15.0 15.0 15.0 15.0 15.0 15.0 15.0 15.0 15.0 15.0 15.0 15.0 15.0 15.0 15.0 0.9 0.1 0.2 12.8 15.0 0.9 1.0 1.2 4.8 5.2 0.7 2.0 7.0 3.4 0.8 1.5 2.8 4.8
15.0 15.0 15.0 15.0 15.0 15.0 15.0 15.0 15.0 15.0 15.0 15.0 15.0 15.0 15.0 15.0 15.0 15.0 15.0 15.0 10.2 0.1 0.3 1.4 0.6 0.2 7.3 15.0 15.0 3.7 0.5 0.3 0.5 5.9 2.8 7.3 4.0 1.4 0.5 0.4 0.3 1.1 8.2
15.0 15.0 15.0 15.0 15.0 15.0 15.0 15.0 15.0 15.0 15.0 15.0 15.0 15.0 3.1 12.8 0.0 0.1 0.1 0.1 0.1 0.1 0.2 0.5 13.8 6.5 10.3 15.0 14.5 7.4 0.5 1.3 7.3 5.0 7.3 5.3 14.4 12.7 2.3 1.2 2.3 1.0 1.0
15.0 15.0 15.0 15.0 15.0 15.0 15.0 15.0 15.0 15.0 10.2 0.2 0.1 0.2 0.2 0.2 0.1 0.1 0.2 0.1 0.2 4.4 2.8 0.2 0.2 3.6 7.5 5.8 4.7 11.1 10.5 11.6 0.8 4.6 7.4 7.6 14.3 1.9 1.0 1.0 6.5 1.1 2.2
15.0 15.0 15.0 15.0 15.0 15.0 15.0 7.1 15.0 1.0 0.0 0.0 0.0 0.1 0.2 1.1 7.2 12.1 14.6 10.8 5.6 12.1 4.8 2.2 0.7 4.9 5.0 3.9 2.5 1.6 1.6 2.0 15.0 9.0 1.0 1.1 1.7 7.1 6.9 4.0 2.9 5.7 10.6
15.0 15.0 15.0 15.0 13.9 4.5 1.0 0.1 0.1 0.1 0.0 0.0 0.1 0.1 0.1 0.2 0.2 5.3 6.0 5.9 2.7 0.6 0.4 0.9 0.7 1.5 1.4 1.1 1.0 0.6 0.2 0.2 0.4 0.6 1.7 7.7 15.0 15.0 4.8 3.1 9.5 15.0 15.0
15.0 15.0 15.0 15.0 15.0 10.4 7.9 7.7 2.3 0.1 0.1 0.3 0.4 0.5 1.1 0.8 0.8 1.0 0.4 0.5 0.5 0.3 0.4 0.4 0.3 0.4 0.5 0.1 0.2 0.5 1.1 3.3 1.9 0.3 0.1 0.1 11.3 15.0 15.0 15.0 15.0 15.0 15.0
15.0 15.0 15.0 6.0 2.4 3.6 1.3 0.2 0.7 0.1 6.2 1.2 1.4 0.4 1.0 0.5 0.2 0.5 0.3 0.3 0.3 0.2 0.2 0.1 0.1 0.1 0.1 0.1 0.1 0.1 0.1 0.1 0.1 0.1 0.2 2.9 13.5 15.0 15.0 15.0 15.0 15.0 15.0
15.0 9.4 3.1 6.6 1.3 0.8 1.1 1.1 0.7 0.7 0.8 0.4 0.3 0.3 0.3 0.3 0.2 0.2 0.2 0.2 0.1 0.1 0.2 0.1 0.1 0.1 0.1 0.1 0.1 0.1 0.1 0.2 0.4 4.5 12.8 15.0 15.0 15.0 15.0 15.0 15.0 15.0 14.2
6.9 1.2 0.4 0.5 0.2 0.1 0.4 0.3 0.2 0.3 0.3 0.2 0.1 0.1 0.2 0.1 0.1 0.2 0.4 0.1 0.1 0.1 0.2 0.1 0.1 0.1 0.1 0.2 0.2 0.3 0.7 2.3 9.1 15.0 15.0 15.0 15.0 15.0 15.0 15.0 15.0 15.0 15.0
9.8 1.0 0.5 0.2 0.2 0.1 0.1 0.2 0.1 0.4 0.3 0.1 0.1 0.1 0.1 0.1 0.1 0.1 0.1 0.3 0.1 0.1 0.1 0.2 0.2 0.2 0.2 0.3 0.3 0.5 9.2 15.0 15.0 15.0 15.0 15.0 15.0 15.0 15.0 15.0 15.0 15.0 15.0
1.9 0.4 0.2 0.1 0.2 0.1 0.1 0.1 0.1 0.1 0.1 0.1 0.1 0.2 0.1 0.1 0.2 0.1 0.2 0.1 0.1 0.1 0.1 0.1 0.1 0.1 0.1 0.6 3.9 15.0 15.0 15.0 15.0 15.0 15.0 15.0 15.0 15.0 15.0 15.0 15.0 15.0 15.0
0.3 0.1 0.2 0.2 0.2 0.1 0.2 0.4 0.4 0.2 0.1 0.1 0.1 0.1 0.1 0.5 0.2 0.1 0.1 0.1 0.1 0.1 0.1 0.1 0.2 0.5 2.8 14.5 15.0 15.0 15.0 15.0 15.0 15.0 15.0 15.0 15.0 15.0 15.0 15.0 15.0 15.0 15.0
0.2 0.3 0.2 0.2 0.2 0.5 2.7 0.8 0.3 0.2 0.1 0.1 0.1 0.1 0.1 0.1 0.1 0.1 0.1 0.1 0.1 0.2 0.2 0.6 15.0 15.0 15.0 15.0 15.0 15.0 15.0 15.0 15.0 15.0 15.0 15.0 15.0 15.0 15.0 15.0 15.0 15.0 15.0
0.9 2.0 5.3 1.1 0.7 0.3 0.1 0.2 0.2 0.2 0.2 0.2 0.1 0.1 0.1 0.2 0.1 0.1 0.4 3.8 15.0 15.0 15.0 12.4 15.0 15.0 15.0 15.0 15.0 15.0 15.0 15.0 14.5 15.0 15.0 15.0 15.0 15.0 15.0 15.0 15.0 15.0 15.0
15.0 14.6 5.1 5.5 14.7 15.0 13.8 10.3 3.6 3.0 1.0 1.0 1.2 3.0 9.9 6.1 2.4 5.4 1.7 1.5 10.4 11.6 15.0 15.0 15.0 5.9 15.0 15.0 6.8 13.6 5.9 0.6 0.7 9.7 15.0 15.0 15.0 10.6 15.0 15.0 15.0 15.0 15.0
15.0 13.8 15.0 15.0 15.0 14.1 8.6 3.0 7.2 13.8 10.9 13.9 15.0 15.0 13.8 6.0 6.7 15.0 15.0 15.0 11.9 6.3 15.0 15.0 5.1 15.0 15.0 15.0 15.0 15.0 14.6 15.0 15.0 15.0 5.7 13.0 14.4 15.0 15.0 15.0 15.0 15.0 14.8
15.0 15.0 15.0 15.0 15.0 15.0 15.0 15.0 15.0 15.0 15.0 15.0 15.0 15.0 13.7 8.0 4.3 15.0 13.2 15.0 15.0 15.0 15.0 2.7 15.0 15.0 15.0 15.0 12.9 1.4 15.0 7.6 15.0 15.0 14.9 3.8 3.2 15.0 14.6 4.7 1.2 0.5 15.0
15.0 15.0 15.0 15.0 15.0 15.0 15.0 15.0 15.0 15.0 15.0 15.0 15.0 15.0 15.0 12.5 15.0 8.6 1.8 15.0 15.0 5.4 15.0 15.0 13.3 15.0 15.0 2.8 11.3 15.0 15.0 15.0 11.4 9.8 9.7 9.6 3.2 1.7 0.8 4.7 15.0 15.0 15.0